Location: Unspecified
(0.0000°N, 0.0000°E)
Time: 12:47:23
(UTC+00:00)

XW-2C - Pass Details

Date: 14 December 2017
Orbit: 509 x 531 km, 97.5° (Epoch: 19 June)

Event Time Altitude Azimuth Distance (km) Brightness Sun altitude
Rises 05:21:10 0° 24° (NNE) 2,659 ? -7.7°
Reaches altitude 10° 05:23:22 10° 32° (NNE) 1,770 ? -7.2°
Maximum altitude 05:26:56 38° 101° (E) 816 ? -6.4°
Drops below altitude 10° 05:30:30 10° 170° (S) 1,769 ? -5.5°
Sets 05:32:42 0° 178° (S) 2,657 ? -5.0°
